Weather History for Cherokee, IA

Change the Weather History Date:

Tuesday, June 25, 2013

  Actual Average Record
Temperature  
Mean Temperature 79 °F -  
Max Temperature 90 °F 83 °F 102 °F (1988)
Min Temperature 68 °F 58 °F 40 °F (1958)
Cooling Degree Days 14    
Growing Degree Days 29 (Base 50)    
Moisture  
Dew Point 70 °F    
Average Humidity 76    
Maximum Humidity 97    
Minimum Humidity 46    
Precipitation  
Precipitation 0.00 in - - ()
Sea Level Pressure  
Sea Level Pressure 29.74 in    
Wind  
Wind Speed 6 mph (SSE)    
Max Wind Speed 15 mph    
Max Gust Speed 21 mph    
Visibility 10 miles    
Events      
Averages and records for this station are not official NWS values.
T = Trace of Precipitation, MM = Missing Value Source: NWS Daily Summary

Daily Weather History Graph

Daily Weather History Graph

Search for Another Location

Airport:

Trip Planner

Search our weather history database for the weather conditions in past years. The results will help you decide how hot, cold, wet, or windy it might be!

Date:

Astronomy

Jun. 25, 2013 Rise Set
Actual Time 5:45 AM CDT 9:04 PM CDT
Civil Twilight 5:10 AM CDT 9:39 PM CDT
Nautical Twilight 4:24 AM CDT 10:25 PM CDT
Astronomical Twilight 3:28 AM CDT 11:20 PM CDT
Moon 10:45 PM CDT (6/25) 8:30 AM CDT (6/25)
Length of Visible Light 16h 29m
Length of Day
15h 19m
Waning Gibbous, 92% of the Moon is Illuminated
Jun 25
Waning Gibbous
Jun 29
Last Quarter
Jul 8
New
Jul 15
First Quarter
Jul 22
Full

Hourly Weather History & Observations

Time (CDT) Temp. Heat Index Dew Point Humidity Pressure Visibility Wind Dir Wind Speed Gust Speed Precip Events Conditions
12:15 AM 70.9 °F - 69.1 °F 94% 29.78 in 10.0 mi East 5.8 mph - N/A   Clear
12:35 AM 71.1 °F - 69.1 °F 93% 29.78 in 10.0 mi ENE 4.6 mph - N/A   Clear
12:55 AM 70.9 °F - 69.1 °F 94% 29.77 in 10.0 mi East 5.8 mph - N/A   Clear
1:15 AM 70.9 °F - 69.1 °F 94% 29.77 in 10.0 mi East 3.5 mph - N/A   Clear
1:35 AM 70.7 °F - 69.1 °F 95% 29.78 in 10.0 mi Calm Calm - N/A   Clear
1:55 AM 70.7 °F - 69.1 °F 95% 29.78 in 10.0 mi Calm Calm - N/A   Scattered Clouds
2:15 AM 70.7 °F - 69.4 °F 96% 29.77 in 10.0 mi NE 3.5 mph - N/A   Scattered Clouds
2:35 AM 71.2 °F - 69.8 °F 95% 29.77 in 10.0 mi Calm Calm - N/A   Clear
2:55 AM 71.2 °F - 69.8 °F 95% 29.76 in 10.0 mi Calm Calm - N/A   Clear
3:15 AM 71.1 °F - 69.8 °F 96% 29.74 in 10.0 mi NNE 5.8 mph - N/A   Clear
3:35 AM 71.8 °F - 70.3 °F 95% 29.72 in 10.0 mi ENE 8.1 mph - N/A   Clear
3:55 AM 72.1 °F - 70.0 °F 93% 29.72 in 10.0 mi East 6.9 mph - N/A   Clear
4:15 AM 71.8 °F - 69.8 °F 93% 29.72 in 10.0 mi East 9.2 mph - N/A   Scattered Clouds
4:35 AM 72.3 °F - 70.0 °F 92% 29.73 in 10.0 mi ESE 9.2 mph - N/A   Scattered Clouds
4:55 AM 71.8 °F - 69.6 °F 93% 29.75 in 10.0 mi Calm Calm - N/A   Clear
5:15 AM 71.4 °F - 69.8 °F 95% 29.75 in 10.0 mi Calm Calm - N/A   Clear
5:35 AM 71.4 °F - 69.6 °F 94% 29.75 in 10.0 mi East 3.5 mph - N/A   Clear
5:55 AM 71.1 °F - 69.1 °F 93% 29.75 in 10.0 mi Calm Calm - N/A   Clear
6:15 AM 69.8 °F - 68.4 °F 95% 29.74 in 7.0 mi Calm Calm - N/A   Clear
6:35 AM 68.9 °F - 67.6 °F 96% 29.74 in 5.0 mi Calm Calm - N/A   Clear
6:55 AM 70.9 °F - 70.0 °F 97% 29.72 in 7.0 mi Calm Calm - N/A   Clear
7:15 AM 74.3 °F - 70.2 °F 87% 29.69 in 10.0 mi South 6.9 mph - N/A   Clear
7:35 AM 74.3 °F - 70.3 °F 87% 29.69 in 10.0 mi Calm Calm - N/A   Clear
7:55 AM 75.4 °F - 70.7 °F 85% 29.74 in 10.0 mi South 11.5 mph - N/A   Clear
8:15 AM 77.0 °F - 70.7 °F 81% 29.77 in 10.0 mi SSW 11.5 mph 20.7 mph N/A   Clear
8:35 AM 78.8 °F - 71.4 °F 78% 29.79 in 10.0 mi SSW 15.0 mph 19.6 mph N/A   Clear
8:55 AM 79.7 °F - 72.1 °F 78% 29.79 in 10.0 mi SSW 11.5 mph - N/A   Clear
9:15 AM 79.0 °F - 72.5 °F 80% 29.78 in 10.0 mi South 9.2 mph - N/A   Clear
9:35 AM 77.9 °F - 72.0 °F 82% 29.78 in 10.0 mi South 11.5 mph - N/A   Clear
9:55 AM 77.0 °F - 70.7 °F 81% 29.77 in 10.0 mi South 10.4 mph - N/A   Scattered Clouds
10:15 AM 76.1 °F - 70.9 °F 84% 29.79 in 10.0 mi SSW 4.6 mph - N/A   Clear
10:35 AM 75.7 °F - 70.9 °F 85% 29.78 in 10.0 mi South 5.8 mph - N/A   Clear
10:55 AM 75.4 °F - 70.0 °F 83% 29.76 in 10.0 mi SSW 8.1 mph - N/A   Clear
11:15 AM 78.1 °F - 70.7 °F 78% 29.74 in 10.0 mi South 6.9 mph - N/A   Clear
11:35 AM 79.2 °F - 69.1 °F 71% 29.73 in 10.0 mi East 3.5 mph - N/A   Clear
11:55 AM 82.6 °F 86.1 °F 69.1 °F 64% 29.74 in 10.0 mi South 4.6 mph - N/A   Clear
12:15 PM 84.2 °F 86.3 °F 65.7 °F 54% 29.74 in 10.0 mi South 10.4 mph - N/A   Clear
12:35 PM 85.3 °F 87.1 °F 65.1 °F 51% 29.74 in 10.0 mi SSE 4.6 mph - N/A   Clear
12:55 PM 85.3 °F 86.1 °F 63.1 °F 47% 29.75 in 10.0 mi SSE 9.2 mph - N/A   Clear
1:15 PM 86.0 °F 86.8 °F 63.1 °F 46% 29.75 in 10.0 mi SSE 8.1 mph 16.1 mph N/A   Clear
1:35 PM 85.6 °F 88.2 °F 66.6 °F 53% 29.75 in 10.0 mi South 9.2 mph - N/A   Clear
1:55 PM 84.4 °F 87.6 °F 68.0 °F 58% 29.75 in 10.0 mi SSE 8.1 mph - N/A   Clear
2:15 PM 84.6 °F 88.5 °F 69.3 °F 60% 29.75 in 10.0 mi SE 10.4 mph - N/A   Clear
2:35 PM 86.9 °F 91.0 °F 69.1 °F 55% 29.75 in 10.0 mi SE 8.1 mph - N/A   Clear
2:55 PM 86.4 °F 89.7 °F 68.2 °F 54% 29.75 in 10.0 mi SSE 10.4 mph - N/A   Clear
3:15 PM 87.3 °F 90.5 °F 67.6 °F 52% 29.74 in 10.0 mi SSE 8.1 mph - N/A   Clear
3:35 PM 88.7 °F 91.1 °F 66.2 °F 47% 29.73 in 10.0 mi South 11.5 mph - N/A   Clear
3:55 PM 88.5 °F 91.2 °F 66.7 °F 48% 29.72 in 10.0 mi South 10.4 mph - N/A   Clear
4:15 PM 90.1 °F 93.5 °F 67.6 °F 47% 29.72 in 10.0 mi South 12.7 mph - N/A   Clear
4:19 PM 89.6 °F 92.2 °F 66.2 °F 46% 29.72 in 10.0 mi South 11.5 mph 16.1 mph N/A   Clear
4:35 PM 89.4 °F 93.1 °F 67.8 °F 49% 29.72 in 10.0 mi South 13.8 mph 17.3 mph N/A   Clear
4:55 PM 87.8 °F 91.1 °F 67.8 °F 51% 29.72 in 10.0 mi SSE 10.4 mph - N/A   Clear
5:15 PM 86.9 °F 90.6 °F 68.4 °F 54% 29.71 in 10.0 mi South 10.4 mph - N/A   Clear
5:35 PM 86.5 °F 90.0 °F 68.2 °F 54% 29.71 in 10.0 mi South 10.4 mph - N/A   Clear
5:55 PM 86.5 °F 90.7 °F 69.1 °F 56% 29.72 in 10.0 mi South 8.1 mph - N/A   Clear
6:15 PM 85.1 °F 88.8 °F 68.9 °F 58% 29.72 in 10.0 mi South 8.1 mph - N/A   Clear
6:35 PM 84.6 °F 88.8 °F 69.6 °F 61% 29.71 in 10.0 mi SSE 8.1 mph - N/A   Scattered Clouds
6:55 PM 84.2 °F 89.0 °F 70.7 °F 64% 29.72 in 10.0 mi SSE 5.8 mph - N/A   Clear
7:15 PM 85.1 °F 91.1 °F 72.1 °F 65% 29.71 in 10.0 mi SE 6.9 mph - N/A   Scattered Clouds
7:35 PM 85.5 °F 91.1 °F 71.4 °F 63% 29.71 in 10.0 mi SE 8.1 mph - N/A   Clear
7:55 PM 85.1 °F 91.1 °F 72.3 °F 65% 29.71 in 10.0 mi SE 6.9 mph - N/A   Clear
8:15 PM 84.2 °F 90.6 °F 72.9 °F 69% 29.71 in 10.0 mi SE 6.9 mph - N/A   Clear
8:35 PM 83.3 °F 89.6 °F 73.6 °F 72% 29.70 in 10.0 mi SE 5.8 mph - N/A   Scattered Clouds
8:55 PM 82.2 °F 88.3 °F 74.1 °F 76% 29.71 in 10.0 mi SSE 6.9 mph - N/A   Scattered Clouds
9:15 PM 81.5 °F 87.4 °F 74.3 °F 79% 29.71 in 10.0 mi SSE 3.5 mph - N/A   Mostly Cloudy
9:35 PM 81.1 °F 86.8 °F 74.5 °F 80% 29.71 in 10.0 mi SSE 3.5 mph - N/A   Mostly Cloudy
9:55 PM 79.5 °F - 74.7 °F 85% 29.72 in 10.0 mi Calm Calm - N/A   Scattered Clouds
10:15 PM 79.0 °F - 74.8 °F 87% 29.72 in 10.0 mi Calm Calm - N/A   Scattered Clouds
10:35 PM 78.8 °F - 75.2 °F 89% 29.71 in 10.0 mi SSE 3.5 mph - N/A   Mostly Cloudy
10:55 PM 78.3 °F - 75.2 °F 90% 29.72 in 10.0 mi South 4.6 mph - N/A   Mostly Cloudy
11:15 PM 77.9 °F - 74.8 °F 90% 29.71 in 10.0 mi Calm Calm - N/A   Scattered Clouds
11:35 PM 77.4 °F - 75.0 °F 92% 29.70 in 10.0 mi South 4.6 mph - N/A   Scattered Clouds
11:55 PM 77.0 °F - 74.7 °F 92% 29.70 in 10.0 mi South 3.5 mph - N/A   Clear